Location: Aytr�
(46.1357°N, 1.1145°W)
Time: 11:35:56
(UTC+00:00)

Nauka - Pass Details

Date: 17 September 2021
Orbit: 417 x 423 km, 51.6° (Epoch: 24 October)

Event Time Altitude Azimuth Distance (km) Brightness Sun altitude
Rises 19:29:49 0° 224° (SW) 2,351 ? -14.1°
Reaches altitude 10° 19:31:57 10° 218° (SW) 1,492 ? -14.4°
Maximum altitude 19:35:09 44° 145° (SE) 586 ? -15.0°
Enters shadow 19:36:06 34° 100° (E) 711 ? -15.1°
